Regional Weather Roundup
Issued by NWS

Home | Current Version | Previous Version | Graphics & Text | Print | Product List | Glossary On
Versions: 1 2 3 4 5 6 7 8 9 10 11 12 13 14 15 16 17 18 19 20 21 22 23 24 25 26 27 28 29 30 31 32 33 34 35 36 37 38 39 40 41 42 43 44 45 46 47 48 49 50
000
ASUS43 KIND 051509
RWRIN

WEATHER ROUNDUP FOR INDIANA
NATIONAL WEATHER SERVICE INDIANAPOLIS IN
1000 AM EST MON DEC 05 2016

NOTE: "FAIR" INDICATES FEW OR NO CLOUDS BELOW 12,000 FEET WITH NO
SIGNIFICANT WEATHER AND/OR OBSTRUCTIONS TO VISIBILITY.

* - STATION DOES NOT REPORT WEATHER SUCH AS PRECIPITATION OR FOG.

+ - STATION NOT QUALITY CONTROLLED BY THE NATIONAL WEATHER SERVICE.
    USE DATA WITH CAUTION...ESPECIALLY DEWPOINT AND RELATIVE
    HUMIDITY OBSERVATIONS.

INZ001>003-010>013-019-020-051600-
NORTHWEST INDIANA

CITY           SKY/WX    TMP DP  RH WIND       PRES   REMARKS
GARY /AIRPORT/ CLOUDY    34  32  93 SW5       30.05R FOG     WCI  30
KNOX *+        CLOUDY    32  21  64 SW7       30.06R WCI  26
LA PORTE +     CLOUDY   N/A N/A N/A SW6       30.06R
MICHIGAN CITY+ CLOUDY    32  32 100 S7        30.06R WCI  26
MONTICELLO +   CLOUDY    32  28  84 S5        30.07R WCI  28
RENSSELAER +   CLOUDY    32  32 100 S7        30.07R WCI  26
VALPARAISO     CLOUDY    33  30  88 SW8       30.05  WCI  26

$$

LMZ046-743>745-051600-
SOUTHERN LAKE MICHIGAN

STATION/POSITION TIME  TEMP    WIND        PRES    WAVE
                       AIR SEA DIR/SP/G            HT
                 (UTC) (F)     (DEG/KT/KT) (MB)    (FT)
BURNS HARBOR     1440   34     210/  9/ 12 1017.9R

$$

INZ004-005-014>016-021>024-051600-
NORTH CENTRAL INDIANA

CITY           SKY/WX    TMP DP  RH WIND       PRES   REMARKS
ELKHART        CLOUDY    32  30  93 S8        30.05  WCI  25
GOSHEN         CLOUDY    33  28  81 SW8       30.06R WCI  26
LOGANSPORT +   CLOUDY    32  30  93 S6        30.09R WCI  26
ROCHESTER +    CLOUDY    34  32  93 S5        30.08R WCI  30
SOUTH BEND     CLOUDY    31  30  96 S10       30.06R WCI  22
WARSAW +       CLOUDY    32  28  86 S3        30.06S

$$

INZ006>009-017-018-025>027-051600-
NORTHEAST INDIANA

CITY           SKY/WX    TMP DP  RH WIND       PRES   REMARKS
ANGOLA *+      CLOUDY    34  28  80 SW7       30.04S WCI  28
AUBURN +       CLOUDY    34  30  86 SW3       30.08R
FORT WAYNE     CLOUDY    33  29  85 SW7       30.08S WCI  27
HUNTINGTON +   CLOUDY    32  30  93 SW3       30.08R
KENDALLVILLE + CLOUDY    32  29  90 SW6       30.06R WCI  27

$$

INZ028-029-035-036-043>045-051>053-051600-
WEST CENTRAL INDIANA

CITY           SKY/WX    TMP DP  RH WIND       PRES   REMARKS
CRAWFORDSVL +  CLOUDY    32  32 100 S7        30.08S WCI  26
GREENCASTLE +  CLOUDY    34  32  93 S5        30.10R WCI  30
LAFAYETTE      CLOUDY    33  32  96 S3        30.08R
TERRE HAUTE    CLOUDY    35  30  82 S5        30.10S WCI  31

$$

INZ030>032-037>040-046>048-054>057-064-065-051600-
CENTRAL INDIANA

CITY           SKY/WX    TMP DP  RH WIND       PRES   REMARKS
ANDERSON       CLOUDY    36  30  80 SW5       30.10R
FRANKFORT +    CLOUDY    36  32  87 SW6       30.09S
GREENWOOD *+   CLOUDY    36  31  85 S3        30.10R
INDIANAPOLIS   CLOUDY    35  30  82 S6        30.10R WCI  30
-EAGLE CREEK   CLOUDY    35  29  78 SW6       30.09S WCI  30
KOKOMO +       CLOUDY    34  30  85 SW7       30.09R WCI  28
MARION +       CLOUDY    33  30  91 SW5       30.10R FOG     WCI  28
MT COMFORT *+  CLOUDY    34  30  86 S7        30.10R WCI  28
SHELBYVILLE    CLOUDY    37  30  75 SW5       30.10R
ZIONSVILLE +   CLOUDY    33  30  89 SW6       30.09R WCI  28

$$

INZ033-034-041-042-049-050-058-059-051600-
EAST CENTRAL INDIANA

CITY           SKY/WX    TMP DP  RH WIND       PRES   REMARKS
MUNCIE         CLOUDY    36  29  75 SW5       30.09R

$$

INZ060-061-067>069-081>083-085>088-051600-
SOUTHWEST INDIANA

CITY           SKY/WX    TMP DP  RH WIND       PRES   REMARKS
EVANSVILLE     CLOUDY    39  33  79 NE5       30.11R
HUNTINGBURG *+ CLOUDY    37  32  81 E6        30.12R
WASHINGTON +   CLOUDY    37  33  85 E5        30.12R

$$

INZ062-063-066-070>080-084-089>092-051600-
SOUTH CENTRAL AND SOUTHEAST INDIANA

CITY           SKY/WX    TMP DP  RH WIND       PRES   REMARKS
BLOOMINGTON    CLOUDY    35  29  78 SE5       30.10R WCI  31
MADISON *+     CLOUDY    37  32  81 CALM      30.13R
NORTH VERNON + CLOUDY    37  37 100 E3        30.12R
SEYMOUR +      CLOUDY    37  30  75 SE3       30.12R

$$





USA.gov is the U.S. government's official web portal to all federal, state and local government web resources and services.